Location: Asbacherhof
(48.8543°N, 10.7903°E)
Time: 21:53:54
(UTC+00:00)

Cosmos 1975 Rocket - Pass Details

Date: 26 May 2022
Orbit: 603 x 633 km, 82.5° (Epoch: 29 June)

Event Time Altitude Azimuth Distance (km) Brightness Sun altitude
Exits shadow 00:39:43 32° 176° (S) 1,069 3.8 -17.5°
Maximum altitude 00:41:41 75° 98° (E) 655 3.1 -17.4°
Drops below altitude 10° 00:46:10 10° 13° (NNE) 2,022 7.0 -17.1°
Sets 00:48:26 0° 12° (NNE) 2,938 8.2 -16.9°
